Home > Weather > Havana > Past weeks

Flag for Cuba Past Weather in Havana, Cuba — Yesterday and Last 2 Weeks

Now
88 °F

Passing clouds.


Feels Like: 94 °F
Forecast: 78 / 91 °F
Wind: 3 mph from Southwest

Location: Aeropuerto Jose Marti - Rancho-Boyeros - Habana

Current Time: Jul 28, 2016 at 8:16:34 PM

Latest Report: Jul 28, 2016 at 6:55 PM


Visibility: 6 mi

Pressure: 29.98 "Hg

Humidity: 59%

Dew Point: 72 °F

Location of HavanaLocation

Past Weather in Havana — Graph

°F

Havana Temperature Yesterday

Maximum temperature yesterday: 88 °F (at 1:55 PM)
Minimum temperature yesterday: 75 °F (at 2:55 AM)
Average temperature yesterday: 80 °F

High & Low Weather Summary for the Past Weeks

 TemperatureHumidityPressure
High91 °F (Jul 15, 2:55 PM)94% (Jul 14, 3:55 AM)30.12 "Hg (Jul 14, 3:55 AM)
Low70 °F (Jul 15, 8:55 PM)41% (Jul 21, 3:55 PM)29.95 "Hg (Jul 15, 4:55 PM)
Average80 °F77%30.04 "Hg
* Reported Jul 13 6:55 PM — Jul 28 6:55 PM, Havana, Weather by CustomWeather, © 2016

Note: Actual official high and low records may vary slightly from our data, if they occured in-between our weather recording intervals... More about our weather records

Advertising

Havana Weather History for the Previous 24 Hours

Scroll right to see more
 ConditionsComfort  
Time TempWeatherWind HumidityBarometerVisibility
6:55 PM
Thu, Jul 28
88 °FPassing clouds.3 mph59%29.98 "Hg6 mi
5:55 PM88 °FPassing clouds.3 mph62%30.01 "Hg6 mi
4:55 PM86 °FPartly sunny.2 mph66%29.98 "Hg6 mi
3:55 PM88 °FPartly sunny.6 mph62%29.98 "Hg6 mi
2:55 PM88 °FPartly sunny.12 mph66%30.01 "Hg6 mi
1:55 PM88 °FPartly sunny.6 mph62%30.01 "Hg6 mi
12:55 PM90 °FPartly sunny.5 mph59%30.04 "Hg6 mi
11:55 AM86 °FScattered clouds.7 mph62%30.04 "Hg6 mi
10:55 AM86 °FScattered clouds.3 mph66%30.04 "Hg6 mi
9:55 AM84 °FPassing clouds.6 mph70%30.04 "Hg6 mi
8:55 AM81 °FPassing clouds.6 mph79%30.04 "Hg6 mi
7:55 AM77 °FPassing clouds.3 mph89%30.01 "Hg6 mi
6:55 AM73 °FPassing clouds.5 mph94%30.01 "Hg6 mi
5:55 AM75 °FPassing clouds.5 mph89%30.01 "Hg6 mi
4:55 AM73 °FPassing clouds.3 mph89%29.98 "Hg5 mi
3:55 AM75 °FPassing clouds.3 mph83%29.98 "Hg5 mi
2:55 AM73 °FPassing clouds.3 mph89%30.01 "Hg6 mi
1:55 AM75 °FPassing clouds.2 mph89%30.01 "Hg6 mi
12:55 AM75 °FPassing clouds.2 mph89%30.04 "Hg6 mi
11:55 PM
Wed, Jul 27
75 °FPassing clouds.No wind83%30.04 "Hg6 mi
10:55 PM75 °FPassing clouds.2 mph89%30.01 "Hg6 mi
9:55 PM75 °FPassing clouds.3 mph83%30.01 "Hg5 mi
8:55 PM79 °FPartly sunny.3 mph84%30.01 "Hg5 mi
Weather by CustomWeather, © 2016

See weather overviewHow to use our weather pages